星链-5657 (STARLINK-5657 )

导读 | 星芒AI

STARLINK-5657 是 SpaceX 星链计划中的一颗低轨道通信卫星,属于第 17 批组网发射的星链卫星之一。该卫星于 2021 年 11 月 17 日由猎鹰 9 号火箭送入近地轨道,旨在为全球用户提供高速互联网服务。它运行在约 550 公里的高度,设计寿命约为 5 至 7 年。星链系统通过部署大量卫星,构建全球覆盖的宽带网络,尤其服务于偏远地区。STARLINK-5657 在提升全球网络连接能力方面发挥着重要作用。

基本信息
目录编号:
55342
目录名称:
STARLINK-5657
国际标识:
2023-013M
轨道中心:
EARTH
卫星名称:
星链-5657
卫星全名:
星链-5657 (STARLINK-5657 )
卫星状态:
在轨 (已飞行1060 天)
发射日期:
2023-01-26 UTC
国别 :
美国 (US)
星等 :
--
轨道信息
数据来源 国际轨道数据
星历时间: 2025-12-21T10:03:44+0800
12小时前
查看轨道信息
半长轴: 6937.235km
偏心率: 0.0001331
轨道倾角: 43.005°
近地点辐角 269.326°
升交点赤经 7.591°
平近点角 90.743°
近地点: 558.174km
远地点: 560.022km
周期: 95.838分钟
每日圈数: 15.025301
详细信息
固有亮度:
5
最大亮度:
2.5
卫星平台:
Starlink v1.5
覆盖范围:
全球
运营商:
太空探索技术公司
运营商所在国:
美国
制造商(研发单位):
太空探索技术公司
制造商所在国:
美国
使用方式:
暂无
卫星简介
星链(Starlink)计划是由太空探索技术公司(SpaceX)提出的一个巨型低轨卫星互联网星座项目,计划在2019年至2024年间在太空搭建由约1.2万颗卫星组成的“星链”网络,其中1584颗将部署在地球上空550千米处的近地轨道,并从2020年开始工作。该卫星仍在工作。
2D轨道图
3D轨道图
轨道高度分析图
轨道倾角分析图
轨道综合分析图
查看轨道综合分析图